Richland, MI

11:03 PM EST on January 16, 2017 (GMT -0500)
CD Ave. | | Change Station
Active Advisory: Flood Warning, Flood Advisory

Elev 906 ft 42.38 °N, 85.44 °W | Updated 11 seconds ago

Rain
Rain
33.9 °F
Feels Like 34 °F
N
2.0
Wind Variable Wind from East
Gusts 0.0 mph

Today
High -- | Low -- °F
--% Chance of Precip.
Yesterday
High -- | Low -- °F
Precip. -- in
Pressure 30.04 in
Visibility 2.0 miles
Clouds Overcast 400 ft
Windchill 34 °F
Dew Point 33 °F
Humidity 97%
Rainfall 0.25 in
Snow Depth Not available.
8:07 AM 5:35 PM
Waning Gibbous, 76% visible
METAR KAZO 170353Z AUTO 11006KT 2SM BR OVC004 02/01 A3001 RMK AO2 RAE39 SLP172 P0000 T00220006
Pressure 30.04 in
Visibility 2.0 miles
Clouds Overcast 400 ft
Windchill 34 °F
Dew Point 33 °F
Humidity 97%
Rainfall 0.25 in
Snow Depth Not available.
8:07 AM 5:35 PM
Waning Gibbous, 76% visible
METAR KAZO 170353Z AUTO 11006KT 2SM BR OVC004 02/01 A3001 RMK AO2 RAE39 SLP172 P0000 T00220006

Get Your Daily Forecast Email!

Thanks for signing up!

Be on the lookout for a verification email in your inbox.

You'll start receiving the daily forecast at 8 AM.

×

10-Day Weather Forecast

Almanac

Astronomy

Jan. 16, 2017 Rise Set
Actual Time
Civil Twilight
Nautical Twilight
Astronomical Twilight
Moon
Length of Visible Light
Length of Day
Tomorrow will be .
, % of the Moon is Illuminated

Today's Extremes

State Highs State Lows

Community

WunderPhotos

Upload Photos

1,962,540 photos uploaded!

WunderBlog® & News

Nearby

Air Quality

  Air Quality AQ Index Pollutant
Not available.

Snow Depth

Station Depth Elevation

Earthquake Activity

City Distance Mag. Time & Date
Minimum magnitude displayed is 2.5.

Coastal Water Temperatures

Place Temperature

Stations

Nearby Weather Stations

Station Location Temp. Windchill Dew Point Humidity Wind Precip. Elev Updated Type
                   

Watches & Warnings

Flood Warning
Issued: 9:33 PM EST Jan. 16, 2017 – National Weather Service

* flood stage is 5.0 feet.
* Forecast, the river is forecast to have a maximum value of 5.0 feet
tomorrow evening.
* Impact, at 5.0 feet... expect overflows into wooded areas and
farmland adjacent to the river
* flood history, this crest compares to a previous crest of 5.0 feet
on Apr 20 2013.


Lat... Lon 4208 8547 4211 8544 4216 8544 4215 8548
      4211 8553 4208 8552




Flood Advisory
Issued: 9:41 PM EST Jan. 16, 2017 – National Weather Service

The National Weather Service in Grand Rapids has issued a
* Flood Advisory for
the Portage River near Vicksburg.
* From Tuesday evening to Wednesday morning.
* There is not current observed data.
* Bankfull stage is 5.0 feet.
* Flood stage is 5.0 feet.
* Impact, at 5.0 feet... expect overflows into wooded areas and
farmland adjacent to the river


Lat... Lon 4208 8547 4211 8544 4216 8544 4215 8548
      4211 8553 4208 8552